Orbital Elements at Epoch 2459200.5 (2020-Dec-17.0) TDB
Reference: JPL 24 (heliocentric ecliptic J2000)
Element | Value | Uncertainty (1-sigma) | Units |
e | .1389587331908791 | 3.2553e-08 | |
a | 2.586064169495306 | 1.3533e-08 | au |
q | 2.226707968551916 | 8.4908e-08 | au |
i | 5.74767194691318 | 4.5207e-06 | deg |
node | 182.6041209817406 | 3.6315e-05 | deg |
peri | 72.87106221804093 | 4.0964e-05 | deg |
M | 254.6885126989598 | 2.1303e-05 | deg |
tp | 2459644.855559351640 (2022-Mar-06.35555935) | 9.2065e-05 | TDB |
period | 1518.998596129505 4.16 | 1.1924e-05 3.265e-08 | d yr |
n | .236998244051904 | 1.8604e-09 | deg/d |
Q | 2.945420370438697 | 1.5414e-08 | au |
|
| | Orbit Determination Parameters
Additional Information
|